GW1690 Weather Reports


Display with metric or nautical units.
time (UTC)temp
F
wind
direction
speed
MPH
gust
MPH
rain 1hr
in
rain 24hr
in
rain mn
in
humidity
%
barometer
mb
20260503200044 74 162 4.0 10.0 0.00 0.00 0.00 36 1010.2
20260503195543 74 167 4.0 10.0 0.00 0.00 0.00 36 1010.2
20260503195022 74 172 4.0 8.0 0.00 0.00 0.00 36 1010.5
20260503194520 73 177 3.0 6.0 0.00 0.00 0.00 37 1010.6
20260503194022 73 178 3.0 11.0 0.00 0.00 0.00 37 1010.7
20260503193521 73 158 4.0 11.0 0.00 0.00 0.00 36 1010.7
20260503193023 73 177 3.0 7.0 0.00 0.00 0.00 37 1010.9
20260503192526 73 179 3.0 7.0 0.00 0.00 0.00 37 1011.1
20260503192104 73 185 3.0 8.0 0.00 0.00 0.00 38 1011.4
20260503191525 72 176 3.0 6.0 0.00 0.00 0.00 38 1011.3
20260503191021 72 169 3.0 6.0 0.00 0.00 0.00 38 1011.4
20260503190540 71 174 3.0 7.0 0.00 0.00 0.00 38 1011.5
20260503190021 71 185 3.0 7.0 0.00 0.00 0.00 37 1011.4
20260503185521 71 175 2.0 6.0 0.00 0.00 0.00 38 1011.5
20260503185021 71 191 3.0 7.0 0.00 0.00 0.00 38 1011.5
20260503184541 71 172 3.0 8.0 0.00 0.00 0.00 38 1011.8
20260503184024 70 148 3.0 8.0 0.00 0.00 0.00 38 1011.7
20260503183542 70 171 3.0 6.0 0.00 0.00 0.00 38 1011.8
20260503183023 70 177 4.0 8.0 0.00 0.00 0.00 37 1011.8
20260503182523 70 175 3.0 7.0 0.00 0.00 0.00 38 1011.9
20260503182021 70 190 3.0 7.0 0.00 0.00 0.00 39 1012.2
20260503181522 70 171 3.0 8.0 0.00 0.00 0.00 38 1012.3
20260503181022 70 178 3.0 8.0 0.00 0.00 0.00 38 1012.5
20260503180524 70 183 4.0 9.0 0.00 0.00 0.00 38 1012.4
20260503180042 70 180 3.0 7.0 0.00 0.00 0.00 39 1012.8
20260503175521 69 179 3.0 8.0 0.00 0.00 0.00 39 1012.9
20260503175023 70 185 4.0 9.0 0.00 0.00 0.00 38 1012.8
20260503174523 70 175 2.0 5.0 0.00 0.00 0.00 39 1013.2
20260503174024 69 198 2.0 5.0 0.00 0.00 0.00 40 1013.5
20260503173520 68 190 2.0 6.0 0.00 0.00 0.00 42 1013.8
20260503173022 68 170 3.0 6.0 0.00 0.00 0.00 40 1013.9
20260503172523 68 210 2.0 5.0 0.00 0.00 0.00 41 1013.8
20260503172022 67 179 3.0 7.0 0.00 0.00 0.00 42 1014.1
20260503171524 67 189 3.0 7.0 0.00 0.00 0.00 42 1014.1
20260503171022 67 167 3.0 6.0 0.00 0.00 0.00 43 1014.1
20260503170543 67 169 3.0 7.0 0.00 0.00 0.00 42 1014.2
20260503150524 61 194 3.0 7.0 0.00 0.00 0.00 52 1018.9
20260503131035 51 175 2.0 3.0 0.00 0.00 0.00 67 1037.8
20260503130537 50 214 2.0 3.0 0.00 0.00 0.00 67 1037.4
20260503130116 50 200 2.0 3.0 0.00 0.00 0.00 68 1036.8
20260503110543 44 168 1.0 2.0 0.00 0.00 0.00 77 1035.3
20260503081525 46 204 1.0 2.0 0.00 0.00 0.00 74 1032.9
20260503081027 46 219 1.0 2.0 0.00 0.00 0.00 75 1033.4
20260503080526 46 205 1.0 2.0 0.00 0.00 0.00 76 1033.7
20260503072527 46 207 1.0 2.0 0.00 0.00 0.00 76 1034.7
20260503072023 46 211 1.0 3.0 0.00 0.00 0.00 76 1035.0
20260503071522 47 211 1.0 1.0 0.00 0.00 0.00 76 1035.0
20260503071042 47 204 1.0 3.0 0.00 0.00 0.00 76 1034.8
20260503070522 47 200 1.0 2.0 0.00 0.00 0.00 76 1035.0
20260503055024 45 26 2.0 3.0 0.00 0.00 0.00 78 1038.0
20260503054542 45 264 1.0 3.0 0.00 0.00 0.00 78 1038.3
20260503054044 45 21 1.0 3.0 0.00 0.00 0.00 79 1038.4
20260503053520 45 4 1.0 3.0 0.00 0.00 0.00 78 1037.9
20260503053024 46 266 1.0 2.0 0.00 0.00 0.00 78 1038.0
20260503052543 46 214 1.0 2.0 0.00 0.00 0.00 78 1037.8
20260503052023 46 216 1.0 2.0 0.00 0.00 0.00 78 1037.2
20260503051525 46 24 2.0 3.0 0.00 0.00 0.00 77 1036.0
20260503051025 46 335 1.0 3.0 0.00 0.00 0.00 77 1035.4
20260503050523 46 256 1.0 3.0 0.00 0.00 0.00 76 1035.3
20260503045520 46 351 1.0 3.0 0.00 0.00 0.00 74 1033.7
20260503045021 46 338 1.0 3.0 0.00 0.00 0.00 73 1033.7
20260503044520 46 232 1.0 3.0 0.00 0.00 0.00 74 1033.7
20260503044041 46 226 0.0 2.0 0.00 0.00 0.00 74 1033.7
20260503043541 46 221 0.0 2.0 0.00 0.00 0.00 74 1033.9
20260503043026 46 297 1.0 3.0 0.00 0.00 0.00 74 1034.0
20260503042522 47 250 0.0 2.0 0.00 0.00 0.00 71 1034.8
20260503042101 47 226 0.0 2.0 0.00 0.00 0.00 73 1034.2
20260503041521 47 3 1.0 3.0 0.00 0.00 0.00 72 1034.7
20260503041041 47 218 0.0 2.0 0.00 0.00 0.00 71 1035.5
20260503040521 47 8 1.0 3.0 0.00 0.00 0.00 70 1036.6
20260503040023 48 20 1.0 3.0 0.00 0.00 0.00 70 1036.4
20260503035522 48 14 1.0 3.0 0.00 0.00 0.00 69 1037.5
20260503035022 48 26 1.0 3.0 0.00 0.00 0.00 68 1038.3
20260503034522 48 20 2.0 3.0 0.00 0.00 0.00 68 1038.4
20260503034021 48 16 1.0 3.0 0.00 0.00 0.00 68 1038.3
20260503033522 48 4 1.0 3.0 0.00 0.00 0.00 67 1038.9
20260503033043 49 315 1.0 3.0 0.00 0.00 0.00 67 1039.0
20260503032523 49 222 0.0 2.0 0.00 0.00 0.00 67 1039.1
20260503032024 49 18 1.0 3.0 0.00 0.00 0.00 66 1039.1
20260503031523 49 23 2.0 3.0 0.00 0.00 0.00 65 1039.1
20260503031023 49 229 1.0 3.0 0.00 0.00 0.00 65 1038.9
20260503030542 49 325 2.0 3.0 0.00 0.00 0.00 63 1037.0
20260503030043 50 15 3.0 3.0 0.00 0.00 0.00 64 1037.6
20260503025520 50 244 2.0 3.0 0.00 0.00 0.00 65 1039.2
20260503025022 50 240 2.0 3.0 0.00 0.00 0.00 64 1038.4
20260503024520 50 229 3.0 3.0 0.00 0.00 0.00 62 1036.0
20260503024023 50 239 3.0 3.0 0.00 0.00 0.00 61 1034.3
20260503023523 50 276 3.0 3.0 0.00 0.00 0.00 61 1034.5
20260503023023 50 4 3.0 4.0 0.00 0.00 0.00 62 1036.4
20260503022522 51 355 3.0 4.0 0.00 0.00 0.00 62 1037.2
20260503022024 51 240 3.0 3.0 0.00 0.00 0.00 62 1037.7
20260503021523 51 237 3.0 3.0 0.00 0.00 0.00 61 1035.2
20260503021020 51 245 3.0 3.0 0.00 0.00 0.00 59 1032.5
20260503020540 52 243 3.0 3.0 0.00 0.00 0.00 60 1034.8
20260503020101 52 238 3.0 3.0 0.00 0.00 0.00 60 1034.6
20260503015521 52 239 3.0 3.0 0.00 0.00 0.00 58 1029.7
20260503015024 53 247 3.0 4.0 0.00 0.00 0.00 58 1030.7
20260503014524 53 240 3.0 3.0 0.00 0.00 0.00 55 1025.0
20260503014024 53 239 3.0 3.0 0.00 0.00 0.00 53 1022.3
20260503013603 54 251 3.0 4.0 0.00 0.00 0.00 52 1020.6
20260503013042 54 234 3.0 4.0 0.00 0.00 0.00 52 1020.4
20260503012523 54 238 3.0 4.0 0.00 0.00 0.00 51 1019.9
20260503012025 55 344 4.0 4.0 0.00 0.00 0.00 51 1019.8
20260503011524 55 6 3.0 4.0 0.00 0.00 0.00 50 1018.7
20260503011021 56 12 4.0 4.0 0.00 0.00 0.00 49 1018.2
20260503010542 56 259 1.0 4.0 0.00 0.00 0.00 49 1018.0
20260503010024 56 22 3.0 4.0 0.00 0.00 0.00 48 1017.4
20260503005522 57 30 4.0 5.0 0.00 0.00 0.00 46 1016.9
20260503005022 57 29 3.0 5.0 0.00 0.00 0.00 46 1016.6
20260503004522 57 30 3.0 5.0 0.00 0.00 0.00 45 1016.5
20260503004042 58 20 2.0 5.0 0.00 0.00 0.00 44 1016.2
20260503003542 58 256 2.0 6.0 0.00 0.00 0.00 44 1016.2
20260503003022 58 5 2.0 5.0 0.00 0.00 0.00 44 1016.3
20260503002522 58 299 4.0 6.0 0.00 0.00 0.00 43 1016.0
20260503002022 59 241 4.0 6.0 0.00 0.00 0.00 42 1015.9
20260503001524 59 258 5.0 7.0 0.00 0.00 0.00 43 1015.9
20260503001029 59 271 4.0 7.0 0.00 0.00 0.00 42 1015.9
20260503000524 59 325 5.0 7.0 0.00 0.00 0.00 42 1015.8
20260503000021 59 14 6.0 7.0 0.00 0.00 0.00 42 1015.8
20260502235519 60 17 6.0 7.0 0.00 0.00 0.00 42 1015.8
20260502235023 60 329 6.0 7.0 0.00 0.00 0.00 41 1015.7
20260502234523 60 264 5.0 8.0 0.00 0.00 0.00 41 1015.7
20260502234022 60 233 5.0 8.0 0.00 0.00 0.00 41 1015.6
20260502233523 60 219 2.0 6.0 0.00 0.00 0.00 41 1015.7
20260502233023 60 335 5.0 8.0 0.00 0.00 0.00 39 1015.5
20260502232523 60 336 6.0 8.0 0.00 0.00 0.00 39 1015.4
20260502232041 61 335 6.0 9.0 0.00 0.00 0.00 39 1015.5
20260502231521 61 350 5.0 9.0 0.00 0.00 0.00 40 1015.5
20260502231021 61 20 6.0 9.0 0.00 0.00 0.00 40 1015.6
20260502230520 61 18 7.0 9.0 0.00 0.00 0.00 40 1015.6
20260502230020 61 18 7.0 10.0 0.00 0.00 0.00 39 1015.5
20260502225521 61 11 7.0 9.0 0.00 0.00 0.00 39 1015.6
20260502225045 61 14 7.0 9.0 0.00 0.00 0.00 40 1015.6
20260502224526 61 357 6.0 9.0 0.00 0.00 0.00 39 1015.4
20260502224041 61 223 4.0 8.0 0.00 0.00 0.00 40 1015.5
20260502223521 62 216 3.0 7.0 0.00 0.00 0.00 39 1015.4
20260502223021 62 253 3.0 7.0 0.00 0.00 0.00 39 1015.4
20260502222521 62 270 4.0 8.0 0.00 0.00 0.00 40 1015.5
20260502222022 62 226 3.0 7.0 0.00 0.00 0.00 39 1015.4
20260502221522 62 221 2.0 6.0 0.00 0.00 0.00 39 1015.5
20260502221022 62 221 2.0 7.0 0.00 0.00 0.00 39 1015.5
20260502220522 62 219 3.0 7.0 0.00 0.00 0.00 39 1015.5
20260502220021 62 17 4.0 10.0 0.00 0.00 0.00 40 1015.5
20260502215520 62 350 6.0 9.0 0.00 0.00 0.00 40 1015.6
20260502215023 62 358 7.0 9.0 0.00 0.00 0.00 40 1015.6
20260502214602 61 5 6.0 10.0 0.00 0.00 0.00 41 1015.7
20260502214023 61 337 6.0 9.0 0.00 0.00 0.00 41 1015.8
20260502213523 60 266 6.0 9.0 0.00 0.00 0.00 44 1016.3
20260502213022 59 359 6.0 7.0 0.00 0.00 0.00 43 1016.1
20260502212522 60 1 6.0 7.0 0.00 0.00 0.00 43 1016.1
20260502212023 60 248 5.0 7.0 0.00 0.00 0.00 45 1016.5
20260502211520 60 328 5.0 7.0 0.00 0.00 0.00 44 1016.3
20260502211023 60 359 5.0 7.0 0.00 0.00 0.00 43 1016.2
20260502210520 61 277 3.0 7.0 0.00 0.00 0.00 42 1016.0
20260502210039 60 283 5.0 7.0 0.00 0.00 0.00 40 1015.8
20260502205520 60 12 5.0 8.0 0.00 0.00 0.00 41 1016.0
20260502205023 60 313 6.0 8.0 0.00 0.00 0.00 43 1016.3
20260502204523 60 360 5.0 7.0 0.00 0.00 0.00 42 1016.2
20260502204025 60 355 6.0 7.0 0.00 0.00 0.00 43 1016.2
20260502203521 60 317 5.0 7.0 0.00 0.00 0.00 42 1016.1
20260502203021 60 283 5.0 7.0 0.00 0.00 0.00 42 1016.2
20260502202521 60 7 5.0 7.0 0.00 0.00 0.00 41 1016.1
20260502202023 60 331 6.0 8.0 0.00 0.00 0.00 41 1016.1
20260502201520 60 333 6.0 8.0 0.00 0.00 0.00 41 1016.2
20260502201041 61 340 7.0 9.0 0.00 0.00 0.00 42 1016.2
20260502200540 61 349 6.0 9.0 0.00 0.00 0.00 42 1016.3